map of APO home
APO - Airport
Location
City:  Apartadó, Antioquia, Colombia
Near (Alt.):Carepa
Name:Antonio Roldán Betancourt Airport
Old (Alt.):Los Cedros Airport
ICAO:SKLC
IATA:APO

Details
Type:Airport (Aerodrome, Airfield)
Latitude:7°48'43"N (7.811817)
Longitude:76°42'59"W (-76.716324)
Elevation:46 ft (14 m)
Variation:6.26°W (WMM2015v2 magnetic declination)
-0.13° annual change
Runways:1
Longest:7153 × 98 ft (2180 × 30 m), paved

Time
Time Zone:UTC-5
Local Time:

Weather
METAR:SKLC 041400Z 36008KT 9000 SCT017 BKN090 28/24 A2988 RMK HZ

Related Locations
Nearby:
Farthest:WIPD: 12218 mi / 19663 km
Pasar Bandingagung [Banding Agung], SS, ID

Find:

   beyond  
but within

Other Information
Maps:
NOTAMs:
Links:
Sources:

  
  • flag of Colombia
  • flag of Antioquia
  

Sectional Chart

Flight Planning
at skyvector.com

Satellite Image

Google Maps Satellite view

 

Copyright © 2004-2019 Karl L. Swartz. All rights reserved.
The Great Circle Mapper name and logo are trademarks of the Great Circle Mapper.
All other trademarks mentioned herein belong to their respective owners.
Please see credits for attibutions and further copyright information.

  Follow gcmap on Facebook Follow gcmap on Twitter GCmap on LinkedIn

hCard Microformat

Geo Microformat